Location: Huntsville
(41.2590°N, 111.7678°W)
Time: 19:16:49
(UTC+00:00)

Courier 1B Rocket - Pass Details

Date: 20 June 2021
Orbit: 920 x 1202 km, 28.2° (Epoch: 01 August)

Event Time Altitude Azimuth Distance (km) Brightness Sun altitude
Rises 05:22:32 0° 253° (WSW) 3,666 8.2 -19.0°
Reaches altitude 10° 05:25:51 10° 239° (WSW) 2,677 7.3 -19.3°
Enters shadow 05:30:03 21° 198° (SSW) 1,941 6.2 -19.7°
Maximum altitude 05:30:33 22° 191° (SSW) 1,928 - -19.7°
Drops below altitude 10° 05:35:09 10° 143° (SE) 2,606 - -20.2°
Sets 05:38:19 0° 128° (SE) 3,542 - -20.4°
